TimeAKST,TemperatureF,Dew PointF,Humidity,Sea Level PressureIn,VisibilityMPH,Wind Direction,Wind SpeedMPH,Gust SpeedMPH,PrecipitationIn,Events,Conditions,WindDirDegrees,DateUTC
12:16 AM,35.6,30.2,81,28.90,6.0,SSE,20.7,34.5,0.02,,Overcast,150,2013-01-03 09:16:00
12:36 AM,37.4,30.2,75,28.90,5.0,SE,24.2,38.0,0.04,,Overcast,140,2013-01-03 09:36:00
12:56 AM,37.4,28.4,70,28.92,5.0,SSE,13.8,28.8,0.06,,Overcast,160,2013-01-03 09:56:00
1:16 AM,37.4,28.4,70,28.91,5.0,SSE,11.5,35.7,0.01,,Overcast,160,2013-01-03 10:16:00
1:36 AM,35.6,28.4,75,28.93,9.0,SSE,13.8,38.0,0.02,,Overcast,160,2013-01-03 10:36:00
1:56 AM,35.6,28.4,75,28.94,7.0,SE,16.1,28.8,0.05,,Overcast,140,2013-01-03 10:56:00
2:16 AM,35.6,28.4,75,28.96,3.0,SE,18.4,33.4,0.02,,Overcast,140,2013-01-03 11:16:00
2:56 AM,35.6,28.4,75,28.97,5.0,SSE,16.1,25.3,0.07,,Overcast,160,2013-01-03 11:56:00
3:36 AM,35.6,28.4,75,28.99,4.0,SSE,23.0,29.9,0.03,,Overcast,160,2013-01-03 12:36:00
3:56 AM,35.6,28.4,75,29.00,9.0,SSE,13.8,27.6,0.04,,Overcast,150,2013-01-03 12:56:00
4:16 AM,35.6,28.4,75,29.02,6.0,SSE,15.0,31.1,0.01,,Mostly Cloudy,150,2013-01-03 13:16:00
4:36 AM,35.6,28.4,75,29.02,7.0,SSE,11.5,25.3,0.02,,Overcast,160,2013-01-03 13:36:00
4:56 AM,35.6,28.4,75,29.02,7.0,South,18.4,25.3,0.03,,Overcast,170,2013-01-03 13:56:00
5:16 AM,37.4,26.6,65,29.02,8.0,SSE,13.8,25.3,N/A,,Overcast,160,2013-01-03 14:16:00
5:36 AM,35.6,28.4,75,29.03,10.0,SE,13.8,27.6,N/A,,Overcast,140,2013-01-03 14:36:00
5:56 AM,35.6,28.4,75,29.04,5.0,SE,16.1,25.3,0.01,,Overcast,140,2013-01-03 14:56:00
6:16 AM,35.6,28.4,75,29.05,4.0,SSE,16.1,20.7,N/A,,Overcast,150,2013-01-03 15:16:00
6:36 AM,37.4,26.6,65,29.05,8.0,SSE,15.0,28.8,0.01,,Mostly Cloudy,150,2013-01-03 15:36:00
6:56 AM,37.4,26.6,65,29.05,10.0,SSE,15.0,21.9,0.01,,Overcast,160,2013-01-03 15:56:00
7:16 AM,37.4,26.6,65,29.06,10.0,SSE,18.4,23.0,N/A,,Overcast,150,2013-01-03 16:16:00
7:36 AM,37.4,26.6,65,29.07,10.0,SE,13.8,26.5,0.01,,Overcast,140,2013-01-03 16:36:00
7:56 AM,37.4,26.6,65,29.08,10.0,SE,11.5,17.3,0.01,,Overcast,140,2013-01-03 16:56:00
8:16 AM,37.4,26.6,65,29.08,10.0,SE,9.2,16.1,N/A,,Mostly Cloudy,140,2013-01-03 17:16:00
8:36 AM,35.6,26.6,70,29.09,10.0,SSE,9.2,-,N/A,,Mostly Cloudy,150,2013-01-03 17:36:00
8:56 AM,35.6,28.4,75,29.09,10.0,SE,8.1,-,N/A,,Mostly Cloudy,130,2013-01-03 17:56:00
9:16 AM,35.6,28.4,75,29.10,10.0,South,11.5,25.3,0.01,,Overcast,180,2013-01-03 18:16:00
9:36 AM,37.4,28.4,70,29.11,10.0,ESE,8.1,19.6,0.01,,Overcast,110,2013-01-03 18:36:00
9:56 AM,37.4,28.4,70,29.12,10.0,SE,10.4,24.2,0.01,,Overcast,130,2013-01-03 18:56:00
10:16 AM,37.4,28.4,70,29.13,10.0,SE,11.5,18.4,N/A,,Overcast,130,2013-01-03 19:16:00
10:36 AM,37.4,28.4,70,29.13,10.0,ESE,10.4,20.7,N/A,,Overcast,110,2013-01-03 19:36:00
10:56 AM,35.6,28.4,75,29.14,10.0,SE,11.5,18.4,N/A,,Mostly Cloudy,140,2013-01-03 19:56:00
11:16 AM,37.4,28.4,70,29.14,10.0,ESE,8.1,17.3,N/A,,Overcast,120,2013-01-03 20:16:00
11:36 AM,37.4,28.4,70,29.14,10.0,SSE,12.7,18.4,N/A,,Overcast,150,2013-01-03 20:36:00
11:56 AM,37.4,28.4,70,29.15,10.0,SE,6.9,-,N/A,,Overcast,140,2013-01-03 20:56:00
12:16 PM,37.4,28.4,70,29.15,10.0,SSE,11.5,20.7,N/A,,Overcast,150,2013-01-03 21:16:00
12:36 PM,35.6,28.4,75,29.15,10.0,SSE,13.8,20.7,N/A,,Overcast,150,2013-01-03 21:36:00
12:56 PM,37.4,28.4,70,29.14,9.0,SSE,15.0,24.2,N/A,,Overcast,150,2013-01-03 21:56:00
1:16 PM,37.4,28.4,70,29.15,10.0,SSE,10.4,23.0,N/A,,Overcast,150,2013-01-03 22:16:00
1:36 PM,37.4,28.4,70,29.15,10.0,SE,11.5,18.4,N/A,,Overcast,140,2013-01-03 22:36:00
1:56 PM,37.4,30.2,75,29.16,10.0,SE,11.5,18.4,N/A,,Overcast,140,2013-01-03 22:56:00
2:16 PM,37.4,28.4,70,29.17,10.0,NNE,3.5,-,N/A,,Overcast,20,2013-01-03 23:16:00
2:36 PM,37.4,26.6,65,29.17,10.0,Calm,Calm,-,N/A,,Mostly Cloudy,0,2013-01-03 23:36:00
3:16 PM,37.4,28.4,70,29.19,10.0,Calm,Calm,-,N/A,,Overcast,0,2013-01-04 00:16:00
3:36 PM,37.4,28.4,70,29.19,10.0,Calm,Calm,-,N/A,,Mostly Cloudy,0,2013-01-04 00:36:00
3:56 PM,37.4,28.4,70,29.20,10.0,North,4.6,-,N/A,,Mostly Cloudy,360,2013-01-04 00:56:00
4:16 PM,37.4,28.4,70,29.21,10.0,SSE,6.9,-,N/A,,Mostly Cloudy,150,2013-01-04 01:16:00
4:36 PM,37.4,26.6,65,29.21,10.0,South,10.4,19.6,N/A,,Mostly Cloudy,170,2013-01-04 01:36:00
4:56 PM,39.2,26.6,61,29.22,10.0,SSE,16.1,20.7,N/A,,Mostly Cloudy,150,2013-01-04 01:56:00
5:16 PM,37.4,26.6,65,-9999,10.0,SSE,8.1,-,N/A,,Mostly Cloudy,150,2013-01-04 02:16:00
5:36 PM,35.6,26.6,70,29.24,10.0,SSW,5.8,-,N/A,,Mostly Cloudy,210,2013-01-04 02:36:00
5:56 PM,37.4,26.6,65,29.25,10.0,SSE,6.9,-,N/A,,Mostly Cloudy,160,2013-01-04 02:56:00
6:16 PM,37.4,28.4,70,29.26,10.0,East,8.1,-,N/A,,Mostly Cloudy,100,2013-01-04 03:16:00
6:36 PM,35.6,28.4,75,29.26,10.0,Calm,Calm,-,N/A,,Overcast,0,2013-01-04 03:36:00
6:56 PM,35.6,28.4,75,29.27,10.0,ENE,3.5,-,N/A,,Overcast,70,2013-01-04 03:56:00
7:16 PM,35.6,30.2,81,29.28,10.0,East,8.1,-,N/A,,Overcast,100,2013-01-04 04:16:00
7:36 PM,35.6,28.4,75,29.29,10.0,East,8.1,-,N/A,,Overcast,100,2013-01-04 04:36:00
7:56 PM,35.6,30.2,81,29.29,10.0,East,10.4,-,N/A,,Overcast,100,2013-01-04 04:56:00
8:16 PM,35.6,30.2,81,29.30,10.0,East,5.8,-,N/A,,Overcast,100,2013-01-04 05:16:00
8:36 PM,35.6,28.4,75,29.31,10.0,ESE,6.9,-,N/A,,Mostly Cloudy,120,2013-01-04 05:36:00
8:56 PM,35.6,30.2,81,29.32,10.0,East,4.6,-,N/A,,Overcast,100,2013-01-04 05:56:00
9:16 PM,35.6,30.2,81,29.33,7.0,SE,3.5,-,N/A,,Overcast,140,2013-01-04 06:16:00
9:36 PM,33.8,28.4,81,29.33,5.0,SSE,3.5,-,N/A,,Overcast,160,2013-01-04 06:36:00
9:56 PM,33.8,28.4,81,29.34,10.0,Calm,Calm,-,N/A,,Overcast,0,2013-01-04 06:56:00
10:16 PM,33.8,30.2,87,29.35,10.0,Calm,Calm,-,N/A,,Overcast,0,2013-01-04 07:16:00
10:36 PM,33.8,30.2,87,29.35,10.0,Calm,Calm,-,N/A,,Mostly Cloudy,0,2013-01-04 07:36:00
10:56 PM,33.8,30.2,87,29.36,10.0,SSW,3.5,-,0.01,,Overcast,210,2013-01-04 07:56:00
11:16 PM,33.8,30.2,87,29.37,10.0,South,3.5,-,N/A,,Overcast,180,2013-01-04 08:16:00
11:36 PM,33.8,30.2,87,29.37,10.0,South,3.5,-,N/A,,Overcast,190,2013-01-04 08:36:00
11:56 PM,33.8,30.2,87,29.38,10.0,Calm,Calm,-,N/A,,Mostly Cloudy,0,2013-01-04 08:56:00